User: anonymous
Location: Unspecified
(0.0000°N, 0.0000°E)
Time: 03:49:21
(UTC+02:00)
Language:

Cosmos 1898 Rocket - Orbit

View from above orbital plane
View from above orbital plane
View from above satellite
View from above satellite

Ground track
Ground track

The orbit data is extracted from the following two-line orbital elements,

1 18586U 87098B   14244.74293883  .00000102  00000-0  43610-4 0  1093
2 18586 074.0097 012.1841 0022028 308.7000 155.1226 14.36449107400966
Epoch (UTC): 01 September 2014 17:49:49
Eccentricity: 0.0022028
inclination: 74.0097°
perigee height: 754 km
apogee height: 786 km
right ascension of ascending node: 12.1841°
argument of perigee: 308.7000°
revolutions per day: 14.36449107
mean anomaly at epoch: 155.1226°
orbit number at epoch: 40096

The dashed part of the orbit path shows where the satellite is in the earth's shadow,  

DLR